User: anonymous   Login
Location: Newark
(47.5347°N, 5.5339°E)
Time: 04:07:20
(UTC+00:00)
Language:

ISS - Orbit

View from above orbital plane
View from above orbital plane
View from above satellite
View from above satellite

Ground track
Ground track

The orbit data is extracted from the following two-line orbital elements,

1 25544U 98067A   19297.51489290  .00016717  00000-0  10270-3 0  9014
2 25544  51.6405  80.0041 0006898 183.8788 176.2310 15.50226081 35312
Epoch (UTC): 24 October 2019 12:21:26
Eccentricity: 0.0006898
inclination: 51.6405°
perigee height: 411 km
apogee height: 421 km
right ascension of ascending node: 80.0041°
argument of perigee: 183.8788°
revolutions per day: 15.50226081
mean anomaly at epoch: 176.2310°
orbit number at epoch: 3531

The dashed part of the orbit path shows where the satellite is in the earth's shadow,  

DLR